STARLINK-31564 (59526 NORAD) Tracking and Keplerian Element Data

This shows tracking and keplerian element data for the satellite.

Feedback or suggestion? Click here.




ElementValue
Catalog59526
NameSTARLINK-31564
Epoch Orbit795
Epoch Day159.91987302
Epoch Year2024
RAAN3.7755
Inclination43.0033
Eccentricity0.0001321
Argument of Perigee252.9387
Mean Anonmoly107.1325
Mean Motion15.40723356
Decay Rate2.144E-05
L11 59526U 24073R 24159.91987302 .00002144 00000+0 58542-4 0 9991
L22 59526 43.0033 3.7755 0001321 252.9387 107.1325 15.40723356 7958



Live tracking and technical data element details for STARLINK-31564 (NORAD 59526). STARLINK-31564 can be tracked NOW for your location showing map with azimuth and elevation plus other details from your city location.







IsCatalogInMostPopularTable: catalog: 59526, numindb: 10
Update: records affected: 1



GetName: 59526 STARLINK-31564

Hit Count: updated at: Fri, 14 Jun 2024 19:05:38 GMT